Ulladulla Observation History
Time Wind Speed Temp Pressure Rel. Hum Rain
03/01:30pm N 3-6 kts 25.1°c 1006.8 hPa 44% 0.0mm
03/01:00pm NW 3-7 kts 24.3°c 1007.4 hPa 41% 0.0mm
03/12:30pm WNW 4-7 kts 23.6°c 1007.6 hPa 42% 0.0mm
03/12:00pm WSW 4-7 kts 23.3°c 1007.9 hPa 40% 0.0mm
03/11:30am WNW 4-8 kts 24.0°c 1008.6 hPa 36% 0.0mm
03/11:00am NW 3-10 kts 23.8°c 1008.8 hPa 40% 0.0mm
03/10:30am NNW 5-7 kts 22.6°c 1009.0 hPa 48% 0.0mm
03/10:00am N 5-8 kts 22.1°c 1009.1 hPa 49% 0.0mm
03/09:30am N 5-9 kts 21.4°c 1009.0 hPa 53% 0.0mm
03/09:00am NNW 5-9 kts 20.3°c 1008.9 hPa 56% 11.6mm
03/08:30am NNW 5-7 kts 19.3°c 1008.6 hPa 58% 11.6mm
03/08:00am NNW 5-7 kts 18.8°c 1008.3 hPa 61% 11.6mm
03/07:30am NNW 5-7 kts 17.3°c 1008.2 hPa 72% 11.6mm
03/07:00am N 3-6 kts 17.5°c 1008.2 hPa 76% 11.6mm
03/06:30am NNW 3-4 kts 17.3°c 1008.1 hPa 73% 11.6mm
03/06:00am NNW 3-5 kts 18.2°c 1007.8 hPa 74% 11.6mm
03/05:30am NNW 3-4 kts 17.9°c 1007.8 hPa 78% 11.6mm
03/05:00am N 2-3 kts 17.7°c 1007.8 hPa 79% 11.6mm
03/04:30am N 1-4 kts 17.9°c 1007.8 hPa 79% 11.6mm
03/04:00am N 3-5 kts 17.5°c 1008.1 hPa 84% 11.6mm
03/03:30am N 2-3 kts 17.5°c 1008.1 hPa 84% 11.6mm
03/03:00am N 2-3 kts 18.0°c 1008.2 hPa 84% 11.6mm
03/02:30am CALM 0 kts 18.3°c 1008.6 hPa 82% 11.6mm
03/02:00am N 3-5 kts 18.9°c 1008.7 hPa 80% 11.6mm
03/01:30am NNW 3 kts 18.1°c 1008.5 hPa 86% 11.6mm
03/01:00am NNW 3-5 kts 18.6°c 1008.6 hPa 88% 11.6mm
03/12:30am CALM 0 kts 17.6°c 1008.8 hPa 90% 11.6mm
03/12:00am CALM 0-3 kts 18.7°c 1008.7 hPa 89% 11.6mm
Time Wind Speed Temp Pressure Rel. Hum Rain
02/11:30pm N 1-4 kts 19.7°c 1009.0 hPa 89% 11.6mm
02/11:00pm NNW 3-5 kts 20.2°c 1009.0 hPa 91% 11.6mm
02/10:30pm NNE 3-5 kts 20.2°c 1009.0 hPa 94% 11.6mm
02/10:00pm N 2-5 kts 19.9°c 1009.0 hPa 94% 11.6mm
02/09:30pm N 4-7 kts 20.3°c 1009.0 hPa 94% 11.6mm
02/09:00pm N 6-8 kts 20.4°c 1008.5 hPa 95% 11.6mm
02/08:30pm N 7-11 kts 20.3°c 1008.5 hPa 95% 11.6mm
02/08:00pm N 7-11 kts 20.6°c 1008.6 hPa 95% 11.6mm
02/07:30pm NNW 6-11 kts 20.9°c 1008.3 hPa 95% 11.6mm
02/07:00pm N 9-14 kts 20.9°c 1008.4 hPa 95% 11.6mm
02/06:30pm N 9-13 kts 20.7°c 1008.4 hPa 96% 11.6mm
02/06:00pm N 7-10 kts 20.8°c 1008.4 hPa 96% 11.6mm
02/05:30pm N 6-9 kts 20.2°c 1008.4 hPa 97% 11.4mm
02/05:00pm NNW 1-5 kts 20.2°c 1008.7 hPa 97% 11.0mm
02/04:30pm NNW 4-9 kts 20.4°c 1009.0 hPa 97% 6.6mm
02/04:00pm N 8-12 kts 20.3°c 1009.2 hPa 97% 5.6mm
02/03:30pm N 9-14 kts 20.3°c 1009.3 hPa 96% 4.4mm
02/03:00pm N 4-9 kts 20.1°c 1009.6 hPa 94% 3.2mm
02/02:30pm N 7-13 kts 20.4°c 1010.1 hPa 90% 1.8mm
02/02:00pm N 4-9 kts 20.2°c 1010.5 hPa 83% 1.6mm
02/01:30pm NE 2-5 kts 20.3°c 1011.2 hPa 82% 1.6mm
02/01:00pm N 5-9 kts 20.1°c 1011.8 hPa 79% 1.0mm
02/12:30pm N 5-8 kts 20.6°c 1012.8 hPa 78% 0.4mm
02/12:00pm NNW 4-7 kts 20.9°c 1012.9 hPa 79% 0.2mm
02/11:30am N 2-5 kts 21.5°c 1012.8 hPa 73% 0.0mm
02/11:00am NE 3-6 kts 21.4°c 1013.2 hPa 76% 0.0mm
02/10:30am NNE 2-4 kts 21.0°c 1013.9 hPa 82% 0.0mm
02/10:00am N 6-8 kts 20.5°c 1014.1 hPa 82% 0.0mm
02/09:30am N 7-11 kts 20.5°c 1013.9 hPa 82% 0.0mm
02/09:00am N 6-9 kts 20.3°c 1013.6 hPa 86% 0.4mm
02/08:30am NNE 4-7 kts 20.6°c 1013.8 hPa 90% 0.4mm
02/08:00am NNE 4-7 kts 20.1°c 1013.8 hPa 93% 0.4mm
02/07:30am NE 3-6 kts 19.8°c 1014.0 hPa 94% 0.4mm
02/07:00am N 3-8 kts 19.8°c 1014.0 hPa 95% 0.4mm
02/06:30am N 5-8 kts 20.1°c 1014.2 hPa 96% 0.4mm
02/06:00am N 5-8 kts 20.4°c 1014.2 hPa 95% 0.4mm
02/05:30am N 6-8 kts 20.3°c 1014.2 hPa 95% 0.4mm
02/05:00am N 5-9 kts 20.8°c 1014.3 hPa 94% 0.4mm
02/04:30am N 5-9 kts 20.9°c 1014.6 hPa 92% 0.4mm
02/04:00am NNW 8-14 kts 21.6°c 1014.6 hPa 91% 0.4mm
02/03:30am NNE 3-10 kts 21.7°c 1014.8 hPa 90% 0.4mm
02/03:00am NNW 5-10 kts 21.6°c 1015.2 hPa 89% 0.4mm
02/02:30am NNW 5-9 kts 21.4°c 1015.7 hPa 93% 0.4mm
02/02:00am N 7-10 kts 21.4°c 1016.0 hPa 93% 0.4mm
02/01:30am N 8-12 kts 21.4°c 1016.4 hPa 92% 0.4mm
02/01:00am N 9-13 kts 21.3°c 1016.6 hPa 92% 0.4mm
02/12:30am N 4-9 kts 21.4°c 1016.9 hPa 90% 0.4mm
02/12:00am NNE 4-8 kts 21.4°c 1017.2 hPa 91% 0.4mm
Time Wind Speed Temp Pressure Rel. Hum Rain
01/11:30pm N 5-10 kts 21.1°c 1017.6 hPa 93% 0.4mm
01/11:00pm N 4-7 kts 21.0°c 1017.9 hPa 94% 0.4mm
01/10:30pm N 6-9 kts 20.6°c 1018.0 hPa 93% 0.4mm
01/10:00pm N 4-7 kts 20.6°c 1018.0 hPa 90% 0.4mm
01/09:30pm NNE 4-7 kts 20.6°c 1018.1 hPa 87% 0.4mm
01/09:00pm NNE 4-8 kts 20.6°c 1018.1 hPa 84% 0.4mm
01/08:30pm NNE 4-7 kts 20.7°c 1017.9 hPa 83% 0.4mm
01/08:00pm NE 7-13 kts 20.6°c 1017.5 hPa 81% 0.4mm
01/07:30pm N 7-12 kts 20.9°c 1017.3 hPa 78% 0.4mm
01/07:00pm NE 5-9 kts 20.9°c 1017.4 hPa 81% 0.4mm
01/06:30pm NNE 8-14 kts 21.1°c 1017.4 hPa 78% 0.4mm
01/06:00pm NE 4-10 kts 21.0°c 1017.3 hPa 77% 0.4mm
01/05:30pm NNE 11-15 kts 21.7°c 1017.3 hPa 77% 0.4mm
01/05:00pm NNE 11-18 kts 21.7°c 1017.4 hPa 78% 0.4mm
01/04:30pm NNE 9-14 kts 21.8°c 1017.3 hPa 77% 0.4mm
01/04:00pm NNE 8-12 kts 21.9°c 1017.4 hPa 75% 0.4mm
01/03:30pm NE 8-13 kts 22.3°c 1017.4 hPa 76% 0.4mm
01/03:00pm NE 6-11 kts 22.6°c 1017.7 hPa 78% 0.4mm
01/02:30pm NNE 6-9 kts 22.0°c 1018.0 hPa 75% 0.4mm
01/02:00pm NNE 7-11 kts 21.6°c 1018.4 hPa 79% 0.4mm
01/01:30pm NE 5-8 kts 22.1°c 1018.6 hPa 80% 0.4mm
01/01:00pm NE 4-7 kts 21.6°c 1019.2 hPa 81% 0.4mm
01/12:30pm NNE 3-5 kts 21.7°c 1019.6 hPa 83% 0.4mm
01/12:00pm NNE 3-5 kts 21.4°c 1019.9 hPa 94% 0.4mm
01/11:30am N 3-4 kts 20.4°c 1020.2 hPa 95% 0.4mm
01/11:00am N 3-5 kts 20.3°c 1020.4 hPa 94% 0.0mm
01/10:30am NNW 2-3 kts 20.2°c 1020.4 hPa 94% 0.0mm
01/10:00am NW 3-5 kts 20.1°c 1020.3 hPa 94% 0.0mm
01/09:30am NW 1-2 kts 20.2°c 1020.1 hPa 94% 0.0mm
01/09:00am NW 3-5 kts 19.7°c 1020.0 hPa 94% 7.2mm
01/08:30am W 1-3 kts 19.2°c 1019.8 hPa 94% 4.0mm
01/08:00am W 2-3 kts 18.9°c 1019.6 hPa 92% 0.0mm
01/07:30am CALM 0 kts 18.5°c 1019.3 hPa 91% 0.0mm
01/07:00am NW 1-2 kts 18.1°c 1019.2 hPa 89% 0.0mm
01/06:30am NW 2 kts 18.6°c 1018.9 hPa 90% 0.0mm
01/06:00am NW 2-3 kts 18.8°c 1018.9 hPa 89% 0.0mm
01/05:30am NW 2-3 kts 18.7°c 1018.6 hPa 88% 0.0mm
01/05:00am NW 2-3 kts 18.9°c 1018.5 hPa 88% 0.0mm
01/04:30am WNW 2-3 kts 19.1°c 1018.4 hPa 82% 0.0mm
01/04:00am NW 1-2 kts 19.7°c 1018.3 hPa 82% 0.0mm
01/03:30am NW 1-2 kts 19.5°c 1018.6 hPa 82% 0.0mm
01/03:00am NNW 2-3 kts 19.4°c 1018.6 hPa 80% 0.0mm
01/02:30am NNW 3-6 kts 20.1°c 1018.8 hPa 77% 0.0mm
01/02:00am N 4-8 kts 20.7°c 1018.9 hPa 74% 0.0mm
01/01:30am NNE 6-9 kts 20.9°c 1019.0 hPa 72% 0.0mm
01/01:00am NNE 6-9 kts 20.9°c 1018.9 hPa 72% 0.0mm
01/12:30am NE 4-8 kts 20.9°c 1018.9 hPa 73% 0.0mm
01/12:00am NNE 6-11 kts 20.9°c 1019.0 hPa 72% 0.0mm